RASCOM QAF 1R

导读

RASCOM QAF 1R是非洲地区卫星通讯组织部署的通信卫星,属于QAF-1新一代方案,由阿尔卡特空间公司与阿莱尼亚宇航公司联合研发。该卫星于2010年8月4日在圭亚那航天中心,由阿丽亚娜5 ECA运载火箭发射升空,定轨于地球同步轨道,计划服役寿命15年,发射质量约3050kg,主要为非洲区域提供通信服务,目前仍在提供卫星通信传输服务。

Basic Information
目录编号:
36831
目录名称:
RASCOM QAF 1R
国际标识:
2010-037B
轨道中心:
EARTH
卫星名称:
RASCOM QAF 1R
卫星全名:
--
卫星状态:
在轨 (已飞行5796 天)
发射日期:
2010-08-04 UTC
国别 :
(RASC)
星等 :
--
Orbit Information
数据来源 国际轨道数据 AOE轨道数据
星历时间 2026-06-17T00:27:06+0800
1天前
查看轨道信息
2026-06-17T05:00:00+0800
21小时前
查看轨道信息
半长轴 42164.504km 42164.476km
偏心率 0.0006764 0.0006622
轨道倾角 0.025° 0.034°
近地点辐角 6.580° 344.011°
升交点赤经 74.259° 93.979°
平近点角 73.789° 145.046°
近地点 35757.846km 35758.417km
远地点 35814.888km 35814.261km
周期 1436.085分钟 1436.084分钟
每日圈数 1.002726 1.002727
Detailed Information
使用方式:
暂无
2D Orbit Map
3D Orbit Map
Orbit Altitude Analysis Chart
Orbit Inclination Analysis Chart
Orbit Comprehensive Analysis Chart
View Comprehensive Chart